User: anonymous   Login
Location: Washington
(38.8950°N, 77.0370°W)
Time: 05:46:57
(UTC-05:00)
Language:

IDEFIX/ARIANE 42P - Orbit

View from above orbital plane
View from above orbital plane
View from above satellite
View from above satellite

Ground track
Ground track

The orbit data is extracted from the following two-line orbital elements,

1 27422U 02021B   16040.67860383  .00000040  00000-0  31888-4 0  9990
2 27422  98.2384  62.2515 0011179 258.4242 101.5686 14.29230264716183
Epoch (UTC): 09 February 2016 16:17:11
Eccentricity: 0.0011179
inclination: 98.2384°
perigee height: 786 km
apogee height: 802 km
right ascension of ascending node: 62.2515°
argument of perigee: 258.4242°
revolutions per day: 14.29230264
mean anomaly at epoch: 101.5686°
orbit number at epoch: 71618

The dashed part of the orbit path shows where the satellite is in the earth's shadow,  

DLR